Zurück zum Katalog

STARLINK-36607

AktivKommunikationVLEO
NORAD 67620·PAYLOAD·🇺🇸 United States

Gestartet Jan 30, 2026 von Cape Canaveral Space Force Station

Loading…

Nächste Überflüge (nächste 24 Stunden)

TLE

AktuellSource: CelesTrak SupGP

Epoche: Sep 14, 2026, 21:08 UTC

1 67620C 26020D   26257.88104167 -.00035257  00000+0 -12769-2 0  2575
2 67620  43.0020 150.9811 0001265 266.8109  31.4794 15.27599694    19

Verfolge STARLINK-36607 in Echtzeit mit AllMySat

Download on the App Store